7 * 24
多渠道服务支持
STARLINK-37248(NORAD编号68527)是SpaceX星链(Starlink)星座中的一颗低轨通信卫星。星链项目旨在为全球提供高速宽带互联网服务,该卫星依托近地轨道部署,可覆盖偏远地区,补充全球网络基础设施。作为星链批次部署中的一员,它延续了星座标准化设计,承担数据传输与星座组网功能,助力SpaceX实现全球卫星互联网覆盖的目标,目前已正常入轨参与星座运行。
美国
(US)
| 数据来源 | 国际轨道数据 |
| 星历时间: | 2026-07-27T13:43:51+0800 19小时前 查看轨道信息 |
| 半长轴: | 6840.799km |
| 偏心率: | 0.0001239 |
| 轨道倾角: | 53.157° |
| 近地点辐角 | 85.300° |
| 升交点赤经 | 195.825° |
| 平近点角 | 274.814° |
| 近地点: | 461.814km |
| 远地点: | 463.51km |
| 周期: | 93.847分钟 |
| 每日圈数: | 15.344139 |